Regional Weather Roundup
Issued by NWS

Home | Current Version | Previous Version | Text Only | Print | Product List | Glossary On
Versions: 1 2 3 4 5 6 7 8 9 10 11 12 13 14 15 16 17 18 19 20 21 22 23 24 25 26 27 28 29 30 31 32 33 34 35 36 37 38 39 40 41 42 43 44 45 46 47 48 49 50
831
ASUS42 KKEY 071810
RWRKEY

FLORIDA REGIONAL WEATHER ROUNDUP FOR THE FLORIDA KEYS
NATIONAL WEATHER SERVICE KEY WEST FLORIDA
100 PM EST WED DEC 07 2016

...SOUTH FLORIDA AND THE KEYS...

CITY           SKY/WX    TMP DP  RH WIND       PRES   REMARKS
FORT MYERS     SUNNY     80  67  64 CALM      30.03F
SW REGIONAL AP SUNNY     79  65  62 VRB3      30.03F
NAPLES         MOSUNNY   81  69  67 VRB5      30.03F
MIAMI          MOSUNNY   83  73  72 VRB3      30.01F
WEST KENDALL   MOSUNNY   83  73  72 W9        30.01F
HOMESTEAD      PTSUNNY   82  79  89 CALM      30.00F HX  93
MARATHON       MOSUNNY   82  76  81 NW6       30.02F
BOCA CHICA NAS CLOUDY    81  76  84 SE3       30.03F
KEY WEST INTL  CLOUDY    80  77  90 VRB5      30.03F

...INTERNATIONAL WEATHER...

CITY           SKY/WX    TMP DP  RH WIND       PRES   REMARKS
NASSAU BAHAMAS PTSUNNY   84  73  70 CALM      30.02F HX  91
CANCUN MEXICO  PTSUNNY   84  77  79 SE9       30.01F HX  94
COZUMEL MEXICO MOSUNNY   88  73  62 S9        29.99F HX  96

ADJACENT COASTAL WATERS...

STATION/POSITION TIME  SKY/WX   TEMP    WIND        PRES    WAVE
                                AIR SEA DIR/SP/G            HT/PER
                 (UTC)          (F)     (DEG/KT/KT) (MB)    (FT/S)
PULASKI SHOAL LI 1800            76     100/  5/  6 1016.9F
SAND KEY         1750            79      20/  5/ 25 1017.5F
LONG KEY         1800            79 80  320/  3/  5 1017.0F
MOLASSES REEF    1800            79 80  270/  4/  5 1016.7F
FOWEY ROCKS      1800            78 79  120/  1/  2 1017.0F

$$




USA.gov is the U.S. government's official web portal to all federal, state and local government web resources and services.